KCZAH OTHH-NZAA

Flight info

Callsign KCZAH
Flight time N/A
Altitude 33000
Route BUNDU B415 SIXIV N318 TOLDA P570 EMURU M300 VASTU P895 BIKOK M641 DOGAR DCT DAOVO DCT 10S094E 16S100E 19S104E 21S107E DCT JOLLY DCT 25S114E DCT LST DCT EKUNO DCT 30S128E DCT BEZZA DCT TEGEX DCT DAMOB DCT BHI DCT NEWMO J141 PKS A576 TESAT L521 LUNBI
Aircraft A333/H-SDE3GHIJ2J3J5M1RVWXY/LB2D1

Departure

Time 2026-02-17 03:04
Airport Hamad International Airport (OTHH)

Arrival

Time N/A
Airport Auckland International Airport (NZAA)
Time Latitude Longitude Altitude Speed Heading
2026-02-17 02:48 25.25697 51.62066 24 ft 0 kts 248°
2026-02-17 02:55 25.25702 51.62080 29 ft 2 kts 248°
2026-02-17 02:55 25.25710 51.62097 29 ft 3 kts 213°
2026-02-17 02:55 25.25728 51.62104 29 ft 3 kts 168°
2026-02-17 02:55 25.25727 51.62105 29 ft 2 kts 163°
2026-02-17 02:56 25.25709 51.62111 29 ft 4 kts 163°
2026-02-17 02:56 25.25700 51.62115 29 ft 1 kts 160°
2026-02-17 02:56 25.25699 51.62115 29 ft 1 kts 160°
2026-02-17 02:57 25.25695 51.62117 29 ft 2 kts 158°
2026-02-17 02:57 25.25646 51.62149 26 ft 13 kts 143°
2026-02-17 02:57 25.25642 51.62152 27 ft 1 kts 141°
2026-02-17 02:57 25.25619 51.62170 26 ft 8 kts 148°
2026-02-17 02:58 25.25577 51.62228 27 ft 11 kts 129°
2026-02-17 02:58 25.25498 51.62281 24 ft 16 kts 156°
2026-02-17 02:58 25.25441 51.62369 28 ft 12 kts 86°
2026-02-17 02:59 25.25514 51.62552 29 ft 0 kts 66°
2026-02-17 03:02 25.25518 51.62563 27 ft 5 kts 66°
2026-02-17 03:03 25.25616 51.62643 27 ft 12 kts 351°
2026-02-17 03:03 25.25662 51.62627 27 ft 0 kts 338°
2026-02-17 03:03 25.25726 51.62599 26 ft 41 kts 339°
2026-02-17 03:03 25.26269 51.62361 30 ft 124 kts 338°
2026-02-17 03:04 25.27297 51.61910 27 ft 191 kts 338°
2026-02-17 03:04 25.28639 51.61325 545 ft 221 kts 339°
2026-02-17 03:04 25.30175 51.60695 1243 ft 257 kts 340°
2026-02-17 03:04 25.31901 51.60027 1965 ft 263 kts 341°
2026-02-17 03:05 25.33696 51.59743 2915 ft 262 kts
2026-02-17 03:05 25.35385 51.60548 3615 ft 275 kts 39°
2026-02-17 03:05 25.36537 51.62326 3948 ft 302 kts 69°
2026-02-17 03:05 25.36861 51.64734 3998 ft 335 kts 89°
2026-02-17 03:06 25.37028 51.67417 3985 ft 365 kts 82°
2026-02-17 03:06 25.37397 51.70239 4734 ft 355 kts 83°
2026-02-17 03:06 25.37652 51.72798 6942 ft 317 kts 87°
2026-02-17 03:07 25.36416 51.77238 9489 ft 311 kts 115°
2026-02-17 03:07 25.35540 51.79527 9897 ft 334 kts 110°
2026-02-17 03:07 25.34781 51.82050 10244 ft 357 kts 107°
2026-02-17 03:07 25.34105 51.84766 10703 ft 373 kts 104°
2026-02-17 03:08 25.33489 51.87530 11489 ft 378 kts 103°
2026-02-17 03:08 25.32896 51.90337 12627 ft 370 kts 103°
2026-02-17 03:08 25.32332 51.93074 13902 ft 361 kts 103°
2026-02-17 03:08 25.31784 51.95771 14950 ft 359 kts 103°
2026-02-17 03:09 25.31239 51.98472 15791 ft 361 kts 102°
2026-02-17 03:09 25.30689 52.01207 16560 ft 365 kts 102°
2026-02-17 03:09 25.30136 52.03962 17288 ft 369 kts 102°
2026-02-17 03:09 25.29569 52.06745 17987 ft 373 kts 104°
2026-02-17 03:10 25.28719 52.09467 18659 ft 377 kts 116°
2026-02-17 03:10 25.27321 52.11934 19307 ft 381 kts 127°
2026-02-17 03:10 25.25691 52.14252 19950 ft 384 kts 129°
2026-02-17 03:11 25.22333 52.18885 21143 ft 392 kts 129°
2026-02-17 03:11 25.20628 52.21247 21728 ft 395 kts 128°
2026-02-17 03:11 25.18910 52.23634 22283 ft 399 kts 128°
2026-02-17 03:11 25.17179 52.26042 22819 ft 402 kts 128°
2026-02-17 03:12 25.15434 52.28470 23344 ft 405 kts 128°
2026-02-17 03:12 25.13672 52.30923 23848 ft 409 kts 128°
2026-02-17 03:12 25.11900 52.33387 24339 ft 412 kts 128°
2026-02-17 03:12 25.10112 52.35874 24799 ft 416 kts 128°
2026-02-17 03:13 25.08293 52.38403 24977 ft 426 kts 128°
2026-02-17 03:13 25.06350 52.40939 25077 ft 438 kts 134°
2026-02-17 03:13 25.04051 52.43117 25734 ft 433 kts 145°
2026-02-17 03:13 25.01488 52.44739 26435 ft 429 kts 156°
2026-02-17 03:14 24.98666 52.45777 26930 ft 429 kts 168°
2026-02-17 03:14 24.95695 52.46160 27342 ft 430 kts 180°
2026-02-17 03:14 24.92703 52.45872 27721 ft 432 kts 191°
2026-02-17 03:15 24.87153 52.43349 28449 ft 437 kts 214°
2026-02-17 03:15 24.84819 52.41204 28796 ft 439 kts 226°
2026-02-17 03:15 24.82917 52.38566 29133 ft 441 kts 238°
2026-02-17 03:15 24.81537 52.35544 29453 ft 443 kts 250°
2026-02-17 03:16 24.80745 52.32261 29779 ft 445 kts 261°
2026-02-17 03:16 24.80577 52.28944 30077 ft 447 kts 273°
2026-02-17 03:16 24.81909 52.20856 30834 ft 452 kts 288°
2026-02-17 03:17 24.97159 51.98641 32776 ft 471 kts 326°
2026-02-17 03:17 25.22282 51.91222 34634 ft 480 kts
2026-02-17 03:17 25.46559 52.02695 36365 ft 484 kts 43°
2026-02-17 03:17 25.59243 52.28520 37826 ft 486 kts 81°
2026-02-17 03:18 25.54742 52.57435 39048 ft 486 kts 120°
2026-02-17 03:18 25.37149 52.75960 39998 ft 486 kts 156°
2026-02-17 03:18 25.33980 52.77255 40107 ft 485 kts 167°
2026-02-17 03:19 25.17866 52.77402 40326 ft 489 kts 160°
2026-02-17 03:19 25.08318 52.87685 40957 ft 480 kts 131°
2026-02-17 03:19 25.05497 52.91201 41240 ft 476 kts 133°
2026-02-17 03:19 25.04117 52.92856 41351 ft 475 kts 133°
2026-02-17 03:20 25.02231 52.95145 41474 ft 474 kts 131°
2026-02-17 03:20 24.99842 52.98129 41584 ft 474 kts 131°
2026-02-17 03:21 24.97641 53.00849 41589 ft 477 kts 135°
2026-02-17 03:21 24.96429 53.02114 41338 ft 484 kts 140°
2026-02-17 03:21 24.95137 53.03285 41118 ft 489 kts 144°
2026-02-17 03:22 24.92254 53.05283 41001 ft 490 kts 152°
2026-02-17 03:22 24.89358 53.07251 40974 ft 490 kts 140°
2026-02-17 03:23 24.87007 53.09952 40946 ft 490 kts 125°
2026-02-17 03:23 24.86114 53.11499 40932 ft 490 kts 117°
2026-02-17 03:23 24.84775 53.14949 40916 ft 490 kts 109°
2026-02-17 03:24 24.83472 53.18387 40914 ft 490 kts 118°
2026-02-17 03:24 24.81657 53.21548 41046 ft 489 kts 128°
2026-02-17 03:25 24.79395 53.24355 40999 ft 490 kts 135°
2026-02-17 03:25 24.77239 53.27250 41000 ft 490 kts 126°
2026-02-17 03:26 24.68860 53.35660 41366 ft 487 kts 147°
2026-02-17 03:26 24.43463 53.42921 42037 ft 486 kts 185°
2026-02-17 03:27 24.02093 53.09318 43199 ft 481 kts 249°
2026-02-17 03:27 24.01037 52.80641 43783 ft 477 kts 288°
2026-02-17 03:27 24.08937 52.63702 44072 ft 477 kts 300°
2026-02-17 03:28 24.09182 52.63237 44079 ft 477 kts 299°
2026-02-17 03:29 24.11030 52.59822 44098 ft 477 kts 306°
2026-02-17 03:29 24.32671 52.45113 40968 ft 488 kts 348°
2026-02-17 03:29 24.42557 52.44681 41000 ft 489 kts 11°
2026-02-17 03:30 24.54094 52.52062 41000 ft 490 kts 50°
2026-02-17 03:30 24.58950 52.65741 40999 ft 490 kts 89°
2026-02-17 03:30 24.58521 52.71165 40999 ft 490 kts 103°
2026-02-17 03:31 24.58316 52.72106 41050 ft 484 kts 105°
2026-02-17 03:32 24.57307 52.75557 41240 ft 467 kts 110°
2026-02-17 03:32 24.56217 52.78863 41228 ft 455 kts 110°
2026-02-17 03:32 24.55247 52.82121 41215 ft 443 kts 107°
2026-02-17 03:32 24.54360 52.85315 41195 ft 431 kts 107°
2026-02-17 03:33 24.53496 52.88427 41179 ft 420 kts 107°
2026-02-17 03:33 24.52665 52.91464 41086 ft 411 kts 105°
2026-02-17 03:33 24.51951 52.94469 40945 ft 403 kts 103°
2026-02-17 03:33 24.51370 52.97455 40795 ft 395 kts 100°
2026-02-17 03:34 24.50929 53.00402 40639 ft 388 kts 97°
2026-02-17 03:34 24.50630 53.03318 40477 ft 381 kts 95°
2026-02-17 03:34 24.50479 53.06166 40303 ft 374 kts 91°
2026-02-17 03:35 24.50633 53.11671 39942 ft 362 kts 84°
2026-02-17 03:35 24.50953 53.14383 39729 ft 356 kts 80°
2026-02-17 03:35 24.51425 53.17023 39494 ft 347 kts 77°
2026-02-17 03:35 24.52014 53.19572 39230 ft 342 kts 74°
2026-02-17 03:36 24.52110 53.19944 39197 ft 342 kts 73°
2026-02-17 03:37 24.52325 53.20729 39108 ft 340 kts 72°